Spokane Felts, WA

9:04 AM PST on November 24, 2017 (GMT -0800)
Felts

Weather History for KSFF - May, 2013

Change the Weather History Date:

Friday, May 17, 2013

  Actual Average Record
Temperature  
Mean Temperature 57 °F 55 °F  
Max Temperature 71 °F 68 °F 93 °F (2006)
Min Temperature 43 °F 42 °F 36 °F (2003)
Degree Days  
Heating Degree Days 8 10  
Month to date heating degree days 100 206  
Since 1 July heating degree days 5412 6061  
Cooling Degree Days 0 0  
Month to date cooling degree days 26 0  
Year to date cooling degree days 26 0  
Growing Degree Days 6 (Base 50)    
Moisture  
Dew Point 42 °F    
Average Humidity 61    
Maximum Humidity 89    
Minimum Humidity 33    
Precipitation  
Precipitation T in 0.06 in 0.14 in (2002)
Month to date precipitation 0.39 0.87  
Year to date precipitation 4.76 7.01  
Sea Level Pressure  
Sea Level Pressure 29.89 in    
Wind  
Wind Speed 4 mph (WSW)    
Max Wind Speed 18 mph    
Max Gust Speed 25 mph    
Visibility 8 miles    
Events Fog , Rain    
T = Trace of Precipitation, MM = Missing Value Source: NWS Daily Summary

Daily Weather History Graph

Daily Weather History Graph

Search for Another Location

Airport or City:

Trip Planner

Search our weather history database for the weather conditions in past years. The results will help you decide how hot, cold, wet, or windy it might be!

Date:

Astronomy

May. 17, 2013 Rise Set
Actual Time 5:08 AM PDT 8:23 PM PDT
Civil Twilight 4:31 AM PDT 9:00 PM PDT
Nautical Twilight 3:43 AM PDT 9:49 PM PDT
Astronomical Twilight 2:42 AM PDT 10:51 PM PDT
Moon 11:59 AM PDT (5/17) 1:06 AM PDT (5/17)
Length of Visible Light 16h 28m
Length of Day
15h 14m
Waxing Crescent, 46% of the Moon is Illuminated
May 17
Waxing Crescent
May 17
First Quarter
May 24
Full
May 31
Last Quarter
Jun 8
New

Hourly Weather History & Observations

Time (PDT) Temp. Windchill Dew Point Humidity Pressure Visibility Wind Dir Wind Speed Gust Speed Precip Events Conditions
12:53 AM 48.0 °F - 44.1 °F 86% 29.89 in 10.0 mi Calm Calm - N/A   Clear
1:53 AM 46.9 °F - 43.0 °F 86% 29.88 in 10.0 mi Calm Calm - N/A   Clear
2:53 AM 46.0 °F - 42.1 °F 86% 29.89 in 9.0 mi Calm Calm - N/A   Clear
3:53 AM 44.1 °F 42.5 °F 41.0 °F 89% 29.88 in 10.0 mi NNE 3.5 mph - N/A   Clear
4:37 AM 44.6 °F - 41.0 °F 87% 29.89 in 2.5 mi Calm Calm - N/A   Clear
4:45 AM 44.6 °F - 41.0 °F 87% 29.89 in 8.0 mi Calm Calm - N/A   Clear
4:53 AM 44.6 °F - 41.0 °F 87% 29.89 in 8.0 mi Calm Calm - N/A   Clear
5:05 AM 42.8 °F 41.1 °F 39.2 °F 87% 29.89 in 0.5 mi NE 3.5 mph - N/A Fog Fog
5:09 AM 42.8 °F - 39.2 °F 87% 29.89 in 0.2 mi Calm Calm - N/A Fog Fog
5:19 AM 44.6 °F - 42.8 °F 93% 29.89 in 1.2 mi Calm Calm - N/A   Partly Cloudy
5:22 AM 44.6 °F - 42.8 °F 93% 29.89 in 3.0 mi Calm Calm - N/A   Partly Cloudy
5:40 AM 44.6 °F - 41.0 °F 87% 29.90 in 2.0 mi Calm Calm - N/A   Clear
5:50 AM 44.6 °F - 41.0 °F 87% 29.90 in 6.0 mi Calm Calm - N/A   Clear
5:53 AM 45.0 °F - 41.0 °F 86% 29.90 in 10.0 mi Calm Calm - N/A   Clear
6:53 AM 48.0 °F - 45.0 °F 89% 29.90 in 10.0 mi Calm Calm - N/A   Clear
7:53 AM 52.0 °F - 45.0 °F 77% 29.90 in 10.0 mi Calm Calm - N/A   Clear
8:53 AM 54.0 °F - 44.1 °F 69% 29.91 in 10.0 mi Calm Calm - N/A   Clear
9:53 AM 59.0 °F - 43.0 °F 55% 29.89 in 10.0 mi Calm Calm - N/A   Partly Cloudy
10:53 AM 64.0 °F - 44.1 °F 48% 29.88 in 10.0 mi Calm Calm - N/A   Mostly Cloudy
11:53 AM 66.2 °F - 41.0 °F 40% 29.88 in 10.0 mi Calm Calm - N/A   Mostly Cloudy
12:53 PM 66.9 °F - 39.9 °F 37% 29.86 in 10.0 mi Variable 3.5 mph - N/A   Mostly Cloudy
1:53 PM 68.0 °F - 41.0 °F 37% 29.85 in 10.0 mi Variable 4.6 mph - N/A   Mostly Cloudy
2:53 PM 69.1 °F - 41.0 °F 36% 29.83 in 10.0 mi West 9.2 mph - N/A   Mostly Cloudy
3:53 PM 70.0 °F - 41.0 °F 35% 29.83 in 10.0 mi WSW 6.9 mph - N/A   Scattered Clouds
4:53 PM 69.1 °F - 39.0 °F 33% 29.83 in 10.0 mi WSW 8.1 mph 19.6 mph N/A   Mostly Cloudy
5:53 PM 66.0 °F - 42.1 °F 42% 29.86 in 10.0 mi West 11.5 mph 18.4 mph N/A   Mostly Cloudy
6:53 PM 64.0 °F - 42.1 °F 45% 29.87 in 10.0 mi West 8.1 mph - N/A   Clear
7:53 PM 62.1 °F - 42.1 °F 48% 29.89 in 10.0 mi SW 10.4 mph - N/A   Mostly Cloudy
8:53 PM 59.0 °F - 43.0 °F 55% 29.91 in 10.0 mi West 4.6 mph - N/A   Scattered Clouds
9:53 PM 59.0 °F - 44.1 °F 58% 29.92 in 10.0 mi SW 6.9 mph - N/A   Overcast
10:53 PM 59.0 °F - 44.1 °F 58% 29.92 in 10.0 mi SW 6.9 mph - N/A   Overcast
11:53 PM 57.0 °F - 46.0 °F 67% 29.93 in 10.0 mi WSW 3.5 mph - 0.00 in Rain Light Rain